Location: Caltech
(34.1382°N, 118.1253°W)
Time: 11:18:04
(UTC-07:00)

Cosmos 2251 Rocket - Visible Passes

Search period start: 29 June 2016 00:00
Search period end: 09 July 2016 00:00
Orbit: 764 x 793 km, 74.0° (Epoch: 28 June)

Date Brightness Start Highest point End Pass type
(mag) Time Alt. Az. Time Alt. Az. Time Alt. Az.
29 Jun 4.9 01:03:43 10° NNW 01:06:50 33° NW 01:06:50 33° NW visible
30 Jun 4.4 00:29:45 10° NNW 00:33:26 46° NNW 00:33:26 46° NNW visible
30 Jun 4.4 23:56:00 10° N 00:00:03 45° NNE 00:00:03 45° NNE visible
01 Jul 6.0 01:40:16 10° WNW 01:40:31 11° WNW 01:40:31 11° WNW visible
01 Jul 4.7 23:22:29 10° N 23:26:42 32° NE 23:26:42 32° NE visible
02 Jul 5.6 01:05:09 10° NW 01:07:10 19° WNW 01:07:10 19° WNW visible
02 Jul 5.2 22:49:17 10° NNE 22:53:14 21° ENE 22:53:22 21° ENE visible
03 Jul 5.0 00:30:43 10° NNW 00:33:51 30° WNW 00:33:51 30° WNW visible
03 Jul 5.6 22:16:47 10° NNE 22:19:05 13° ENE 22:20:04 12° ENE visible
03 Jul 4.3 23:56:37 10° NNW 00:00:33 49° NW 00:00:33 49° NW visible
04 Jul 3.8 23:22:45 10° NNW 23:27:16 61° NNE 23:27:16 61° NNE visible
05 Jul 4.1 22:49:07 10° N 22:54:02 42° ENE 22:54:02 42° ENE visible
06 Jul 5.7 00:32:29 10° NW 00:34:31 16° WNW 00:34:31 16° WNW visible
06 Jul 4.8 22:15:44 10° N 22:20:09 26° ENE 22:20:49 25° ENE visible
06 Jul 5.0 23:57:47 10° NW 00:01:18 28° WNW 00:01:18 28° WNW visible
07 Jul 5.3 21:42:47 10° NNE 21:46:04 16° ENE 21:47:37 15° E visible
07 Jul 4.1 23:23:32 10° NNW 23:28:06 50° W 23:28:06 50° W visible
08 Jul 3.4 22:49:33 10° NNW 22:54:52 88° WSW 22:54:57 87° SSW visible
